[[{"header":{"parameterUnit":"m.s-1","parameterCategory":2,"la1":30.2991,"la2":30.254,"lo1":-89.0895,"lo2":-89.0444,"dy":0.0017,"dx":0.0017,"nx":28,"ny":28,"refTime":"2023-06-27T21:00:00:Z","depth":"0","parameterNumber":2,"parameterNumberName":"U-component_of_CURRENTS"},"data":[0,0,0,0,0,0,0,0,0,0,0,0,0,0,0,0,0,0,0,0,0,0,0,0,0,0,0,0,0,0,0,0,0,0,0,0,0,0,0,0,0,0,0,0,0,0,0,0,0,0,0,0,0,0,0,0,0,0,0.1332,0.1332,0,0.1318,0.1317,0.1317,0.1263,0.1262,0.1261,0.126,0.1204,0.1203,0.1203,0,0,0,0,0,0,0,0,0,0,0,0,0,0.1305,0.1305,0.1332,0.1332,0.1332,0.1318,0.1317,0.1317,0.1263,0.1262,0.126,0.1259,0.1204,0.1204,0.1203,0,0,0,0,0,0,0,0,0,0,0,0,0,0.1304,0.1306,0.1332,0.1305,0.1303,0.1318,0.1317,0.1317,0.1263,0.1262,0.126,0.1259,0.1204,0.1204,0.1203,0.1229,0,0,0.12,0.12,0,0,0,0,0,0,0,0,0.1304,0.1305,0.1309,0.1307,0.1305,0.1292,0.1287,0.1286,0.1263,0.1276,0.126,0.1258,0.1232,0.1229,0.1227,0.1227,0.1224,0.12,0.12,0.12,0.1199,0,0,0,0,0,0,0,0.1304,0.1305,0.1324,0.131,0.1307,0.1291,0.1289,0.1287,0.1261,0.1275,0.1271,0.1274,0.123,0.1228,0.1226,0.1223,0.12,0.12,0.1199,0.1199,0.135,0.1354,0,0,0,0,0,0,0.1313,0.1306,0.1325,0.1324,0.1303,0.1293,0.1291,0.1296,0.1261,0.1256,0.1275,0.1271,0.123,0.1227,0.1223,0.1348,0.12,0.1199,0.1198,0.1345,0.1351,0.1356,0,0,0,0,0,0,0.1313,0.1315,0.1325,0.1316,0.1316,0.1295,0.1302,0.1297,0.13,0.1262,0.1255,0.1285,0.1229,0.1224,0.1261,0.1342,0.1199,0.1198,0.134,0.1347,0.1353,0.1536,0,0,0,0,0,0,0.1312,0.1315,0.1327,0.1317,0.1317,0.1354,0.1303,0.1298,0.1305,0.13,0.1269,0.1261,0.1227,0.1263,0.126,0.1338,0.1197,0.1334,0.1343,0.1351,0.1525,0.1548,0.1569,0,0,0,0,0,0.1311,0.1339,0.1328,0.133,0.1333,0.1356,0.1356,0.1333,0.1307,0.1326,0.132,0.1262,0.1314,0.1266,0.1261,0.1341,0.133,0.1341,0.135,0.1515,0.1544,0.1568,0,0,0,0,0,0,0.1346,0.1336,0.1323,0.135,0.136,0.1348,0.1366,0.1348,0.1357,0.1354,0.1308,0.1303,0.1368,0.1335,0.1282,0.1414,0.1318,0.1328,0.1444,0.1471,0.1493,0.1483,0.1197,0,0,0,0,0,0.1358,0.137,0.1366,0.1392,0.1399,0.1385,0.1391,0.138,0.1384,0.1384,0.1371,0.1375,0.1409,0.1421,0.143,0.1494,0.1524,0.1549,0.1571,0.159,0.1584,0.1721,0.1755,0.1389,0.1389,0.1388,0,0,0.138,0.1378,0.1385,0.14,0.1402,0.1438,0.1385,0.1411,0.1452,0.138,0.1439,0.1443,0.1443,0.1524,0.1551,0.1504,0.1725,0.1603,0.1619,0.1602,0.1735,0.1771,0.1803,0.1395,0.1394,0.1393,0,0,0.1439,0.1431,0.1462,0.1476,0.149,0.1488,0.1501,0.1507,0.1521,0.1579,0.1558,0.1616,0.164,0.1677,0.1694,0.1845,0.1834,0.1853,0.1959,0.2095,0.2126,0.2153,0.2299,0.2338,0.1869,0.1869,0.187,0,0.147,0.1504,0.148,0.152,0.1545,0.1517,0.1572,0.1592,0.1615,0.1651,0.1621,0.1725,0.1721,0.1844,0.1902,0.1896,0.1969,0.1856,0.2125,0.2152,0.2177,0.2318,0.2359,0.1879,0.1878,0.1877,0.1876,0,0.1552,0.1581,0.1608,0.1644,0.1671,0.1715,0.1735,0.1775,0.1787,0.1807,0.1919,0.1939,0.2001,0.2032,0.2008,0.2192,0.2191,0.2135,0.2054,0.2225,0.2364,0.2403,0.1894,0.189,0.1887,0.1885,0,0,0.1636,0.1657,0.1672,0.1697,0.1739,0.1769,0.1856,0.1928,0.199,0.2038,0.2153,0.2228,0.223,0.2252,0.2256,0.2365,0.2628,0.2332,0.2334,0.2472,0.2961,0.3041,0.309,0.2627,0.2633,0.2638,0.301,0,0.1717,0.1787,0.1791,0.1882,0.1923,0.1936,0.2013,0.2074,0.2126,0.223,0.229,0.2384,0.232,0.2375,0.2484,0.2573,0.2728,0.2533,0.2776,0.2784,0.2831,0.3137,0.3186,0.3528,0.3048,0.3054,0.3058,0,0.1819,0.1843,0.1927,0.1983,0.2006,0.2056,0.2167,0.2232,0.2357,0.2405,0.251,0.2547,0.2718,0.2638,0.2909,0.2791,0.2903,0.2969,0.2985,0.3008,0.2936,0.3269,0.3615,0.3498,0.3117,0.3112,0.3108,0,0.1887,0.1954,0.2013,0.2035,0.2092,0.2144,0.2185,0.2287,0.2358,0.2525,0.261,0.2776,0.2878,0.3041,0.3162,0.3074,0.3465,0.3361,0.3552,0.3558,0.3619,0.362,0.3869,0.3604,0.3603,0.3602,0.3601,0,0.1981,0.2037,0.2037,0.2072,0.2151,0.2182,0.229,0.2354,0.248,0.2588,0.2695,0.2829,0.2982,0.3191,0.3294,0.3575,0.3593,0.3654,0.3693,0.3691,0.3694,0.3598,0.3462,0.3616,0.3613,0.361,0.3608,0,0.2064,0.2065,0.2125,0.2164,0.218,0.2236,0.2317,0.2391,0.2504,0.2665,0.2734,0.2935,0.3225,0.3405,0.3695,0.3759,0.3942,0.4084,0.4079,0.4112,0.4153,0.4024,0.4126,0.4015,0.4403,0.4408,0.4412,0,0.2118,0.2148,0.2174,0.2189,0.2205,0.227,0.2314,0.2402,0.2483,0.272,0.2814,0.3128,0.3349,0.3832,0.4072,0.4398,0.4159,0.4573,0.4407,0.4256,0.4141,0.3854,0.3725,0.4591,0.4596,0.46,0.4604,0,0.2201,0.2193,0.2214,0.2232,0.2262,0.231,0.2378,0.2437,0.2563,0.2708,0.2923,0.3126,0.3636,0.3984,0.4414,0.4615,0.4396,0.4669,0.4535,0.4366,0.405,0.3926,0.4221,0.4641,0.4637,0.4635,0.4633,0.4631,0.2239,0.2252,0.2241,0.2265,0.2289,0.2321,0.2348,0.2442,0.2561,0.2754,0.2941,0.3244,0.379,0.4429,0.4598,0.4938,0.4681,0.4885,0.4771,0.4513,0.4316,0.4704,0.5123,0.5122,0.5121,0.512,0.512,0,0.2248,0.2245,0.2271,0.2264,0.2267,0.2295,0.2364,0.2385,0.2491,0.2751,0.294,0.3511,0.4012,0.4476,0.5022,0.5004,0.4791,0.4919,0.4518,0.4403,0.4851,0.4767,0.5099,0.5099,0.5099,0.5099,0.5099,0.5099,0.2239,0.2236,0.2237,0.2218,0.2222,0.2208,0.2227,0.2292,0.2449,0.2745,0.3049,0.3317,0.3948,0.4648,0.4977,0.4962,0.4537,0.4478,0.4254,0.4568,0.4551,0.4535,0.4428,0.4683,0.4683,0.3738,0.3731,0.3726]},{"header":{"parameterUnit":"m.s-1","parameterCategory":2,"la1":30.2991,"la2":30.254,"lo1":-89.0895,"lo2":-89.0444,"dy":0.0017,"dx":0.0017,"nx":28,"ny":28,"refTime":"2023-06-27T21:00:00:Z","depth":"0","parameterNumber":3,"parameterNumberName":"V-component_of_CURRENTS"},"data":[0,0,0,0,0,0,0,0,0,0,0,0,0,0,0,0,0,0,0,0,0,0,0,0,0,0,0,0,0,0,0,0,0,0,0,0,0,0,0,0,0,0,0,0,0,0,0,0,0,0,0,0,0,0,0,0,0,0,-0.0995,-0.0996,0,-0.1032,-0.1032,-0.1033,-0.1117,-0.1119,-0.1121,-0.1123,-0.1175,-0.1175,-0.1174,0,0,0,0,0,0,0,0,0,0,0,0,0,-0.0963,-0.0963,-0.0995,-0.0996,-0.0997,-0.1032,-0.1033,-0.1033,-0.1117,-0.112,-0.1122,-0.1124,-0.1175,-0.1175,-0.1174,0,0,0,0,0,0,0,0,0,0,0,0,0,-0.0984,-0.0963,-0.0995,-0.1045,-0.105,-0.1032,-0.1033,-0.1033,-0.1117,-0.112,-0.1123,-0.1125,-0.1175,-0.1175,-0.1174,-0.1111,0,0,-0.1172,-0.1172,0,0,0,0,0,0,0,0,-0.0983,-0.0985,-0.1037,-0.1041,-0.1047,-0.1075,-0.104,-0.1061,-0.1116,-0.1089,-0.1123,-0.1127,-0.1142,-0.1144,-0.1142,-0.1114,-0.1116,-0.1172,-0.1172,-0.1171,-0.1171,0,0,0,0,0,0,0,-0.0981,-0.0984,-0.1008,-0.1037,-0.1043,-0.1053,-0.1059,-0.1044,-0.1097,-0.1091,-0.1098,-0.1105,-0.1145,-0.1142,-0.1143,-0.1117,-0.1172,-0.1171,-0.1171,-0.1171,-0.1067,-0.1065,0,0,0,0,0,0,-0.098,-0.0982,-0.1007,-0.1009,-0.1024,-0.1052,-0.1059,-0.1061,-0.1097,-0.1106,-0.1102,-0.1109,-0.1142,-0.1144,-0.1146,-0.1062,-0.1171,-0.1171,-0.117,-0.107,-0.1067,-0.1064,0,0,0,0,0,0,-0.0979,-0.0981,-0.1005,-0.0999,-0.1003,-0.105,-0.1052,-0.1061,-0.1059,-0.1106,-0.1115,-0.1093,-0.1144,-0.1147,-0.1118,-0.1065,-0.117,-0.117,-0.1072,-0.1069,-0.1065,-0.0902,0,0,0,0,0,0,-0.0977,-0.098,-0.0961,-0.0998,-0.1003,-0.0966,-0.1049,-0.1059,-0.106,-0.1069,-0.11,-0.1109,-0.1147,-0.1118,-0.1117,-0.1066,-0.1169,-0.1075,-0.1071,-0.1067,-0.091,-0.0893,-0.0878,0,0,0,0,0,-0.0976,-0.0925,-0.096,-0.0962,-0.0982,-0.0963,-0.0963,-0.1007,-0.1057,-0.1023,-0.1058,-0.1108,-0.1091,-0.1114,-0.1114,-0.1062,-0.1077,-0.1072,-0.1067,-0.0917,-0.0896,-0.0879,0,0,0,0,0,0,-0.0874,-0.093,-0.0969,-0.0933,-0.0941,-0.0978,-0.0943,-0.0989,-0.0989,-0.0999,-0.1064,-0.107,-0.103,-0.1063,-0.1088,-0.1022,-0.1096,-0.1091,-0.0983,-0.0964,-0.0948,-0.0909,-0.1169,0,0,0,0,0,-0.085,-0.0839,-0.0887,-0.0848,-0.0851,-0.0898,-0.0894,-0.0926,-0.0943,-0.0948,-0.0974,-0.0999,-0.1002,-0.0999,-0.1002,-0.0949,-0.0981,-0.0921,-0.0905,-0.0891,-0.086,-0.0872,-0.0854,-0.1047,-0.1047,-0.1047,0,0,-0.0796,-0.0824,-0.0816,-0.0827,-0.0839,-0.0807,-0.09,-0.0874,-0.0839,-0.0948,-0.089,-0.0935,-0.0977,-0.0928,-0.0913,-0.095,-0.0851,-0.0885,-0.0872,-0.0848,-0.0864,-0.0845,-0.0829,-0.1043,-0.1044,-0.1044,0,0,-0.068,-0.0709,-0.0669,-0.0671,-0.0687,-0.0712,-0.0703,-0.073,-0.0732,-0.0692,-0.0769,-0.0775,-0.0771,-0.0789,-0.0802,-0.0693,-0.0767,-0.0709,-0.059,-0.0601,-0.0586,-0.0572,-0.0577,-0.0565,-0.07,-0.07,-0.07,0,-0.0612,-0.0585,-0.0641,-0.0601,-0.0589,-0.0665,-0.0608,-0.0601,-0.0612,-0.06,-0.0649,-0.0655,-0.0697,-0.0651,-0.0628,-0.0653,-0.0679,-0.0659,-0.0579,-0.0567,-0.0556,-0.0564,-0.0553,-0.0691,-0.0692,-0.0693,-0.0694,0,-0.0487,-0.0458,-0.0419,-0.0414,-0.0396,-0.035,-0.0374,-0.0342,-0.0373,-0.0396,-0.0358,-0.0413,-0.0432,-0.0445,-0.0503,-0.0443,-0.0491,-0.0559,-0.0625,-0.0526,-0.0542,-0.0533,-0.0679,-0.0682,-0.0685,-0.0687,0,0,-0.0359,-0.0341,-0.033,-0.0306,-0.0302,-0.0275,-0.0195,-0.0162,-0.0125,-0.0135,-0.0079,-0.0104,-0.0177,-0.0195,-0.0272,-0.0277,-0.0231,-0.0375,-0.038,-0.0373,-0.0249,-0.0246,-0.0238,-0.0295,-0.0293,-0.0291,-0.0287,0,-0.0247,-0.0154,-0.0171,-0.0064,-0.0022,-0.0051,0.0023,0.0043,0.0038,0.0082,0.0032,0.0047,-0.0069,-0.0085,-0.0104,-0.0203,-0.0203,-0.0225,-0.0351,-0.0354,-0.0358,-0.0225,-0.016,-0.0148,-0.028,-0.0279,-0.0278,0,-0.0134,-0.0092,0.0018,0.0076,0.0095,0.0151,0.0222,0.0276,0.031,0.0306,0.0303,0.0242,0.0243,0.0123,0.0038,0.0023,-0.0086,-0.0163,-0.0167,-0.021,-0.0333,-0.0271,-0.0129,-0.0342,-0.0266,-0.0267,-0.0268,0,-0.005,0.0041,0.0125,0.0147,0.0207,0.0266,0.0302,0.0342,0.0398,0.0444,0.0482,0.044,0.0431,0.0315,0.0144,0.0088,0.0054,-0.0058,-0.0145,-0.0147,-0.0135,-0.0139,-0.0203,-0.0094,-0.0094,-0.0094,-0.0094,0,0.0056,0.0128,0.017,0.0217,0.0329,0.0342,0.0455,0.0487,0.0554,0.0641,0.0588,0.0648,0.0475,0.0419,0.0241,0.0103,0.0121,-0.0072,-0.0125,-0.0076,-0.0075,-0.03,-0.0436,-0.0094,-0.0094,-0.0094,-0.0094,0,0.0135,0.0161,0.0261,0.0338,0.0367,0.0445,0.0544,0.062,0.0673,0.0798,0.0828,0.0817,0.0759,0.0595,0.0418,0.0237,-0.0012,0.003,0.0111,0.0069,-0.0226,-0.0354,-0.0464,-0.0582,-0.0051,-0.0051,-0.0051,0,0.0183,0.024,0.0337,0.0392,0.0431,0.0534,0.0607,0.0675,0.0761,0.0902,0.0979,0.0983,0.1012,0.0788,0.0504,0.0266,0.0031,0.0127,0.0033,-0.0177,-0.0361,-0.0475,-0.0577,0.0109,0.0111,0.0112,0.0113,0,0.0268,0.0295,0.0362,0.0468,0.0554,0.0667,0.078,0.087,0.0977,0.1103,0.1246,0.1296,0.1125,0.0957,0.0641,0.0426,-0.0009,0.0144,-0.0089,-0.0221,-0.0331,-0.0492,0.0026,0.0125,0.0124,0.0123,0.0122,0.0122,0.0311,0.0366,0.0435,0.0541,0.0649,0.0793,0.0899,0.1036,0.1208,0.1434,0.1445,0.1609,0.1373,0.0971,0.0622,0.0098,0.0028,-0.0074,-0.0205,-0.0296,-0.0419,0.0139,0.0176,0.0175,0.0174,0.0174,0.0173,0,0.0337,0.0392,0.05,0.0628,0.0759,0.081,0.1007,0.1133,0.135,0.1608,0.1759,0.1863,0.1456,0.1012,0.0334,-0.0137,-0.0374,-0.0401,-0.0557,-0.0645,-0.0141,-0.0144,-0.0155,-0.0154,-0.0154,-0.0154,-0.0154,-0.0154,0.0343,0.0424,0.0483,0.0682,0.0794,0.0983,0.1103,0.131,0.1528,0.1904,0.2147,0.2298,0.2113,0.0773,-0.0224,-0.0505,-0.0906,-0.0942,-0.119,-0.0859,-0.084,-0.0821,-0.0857,-0.1016,-0.1017,-0.1627,-0.1633,-0.1638]}],[{"header":{"parameterUnit":"m.s-1","parameterCategory":2,"la1":30.2991,"la2":30.254,"lo1":-89.0895,"lo2":-89.0444,"dy":0.0017,"dx":0.0017,"nx":28,"ny":28,"refTime":"2023-06-27T21:00:00:Z","depth":"2","parameterNumber":2,"parameterNumberName":"U-component_of_CURRENTS"},"data":[0,0,0,0,0,0,0,0,0,0,0,0,0,0,0,0,0,0,0,0,0,0,0,0,0,0,0,0,0,0,0,0,0,0,0,0,0,0,0,0,0,0,0,0,0,0,0,0,0,0,0,0,0,0,0,0,0,0,0.1365,0.1366,0,0.1426,0.1426,0.1427,0.142,0.1419,0.1418,0.1418,0.1428,0.1429,0.143,0,0,0,0,0,0,0,0,0,0,0,0,0,0.1183,0.1186,0.1365,0.1366,0.1367,0.1426,0.1426,0.1427,0.142,0.1419,0.1418,0.1417,0.1428,0.1429,0.143,0,0,0,0,0,0,0,0,0,0,0,0,0,0.1252,0.1187,0.1365,0.1373,0.1374,0.1426,0.1426,0.1427,0.142,0.1419,0.1418,0.1417,0.1427,0.1429,0.143,0.146,0,0,0.1434,0.1435,0,0,0,0,0,0,0,0,0.1248,0.1258,0.1371,0.1372,0.1374,0.1417,0.1366,0.1437,0.142,0.1399,0.1418,0.1416,0.1423,0.1424,0.1434,0.146,0.1461,0.1435,0.1435,0.1436,0.1436,0,0,0,0,0,0,0,0.1243,0.1255,0.1386,0.1372,0.1374,0.1353,0.1362,0.1379,0.1413,0.1401,0.1401,0.1414,0.1423,0.1433,0.1434,0.1461,0.1435,0.1436,0.1437,0.1437,0.1572,0.1574,0,0,0,0,0,0,0.1247,0.1251,0.1384,0.1388,0.1311,0.1358,0.1368,0.1402,0.1414,0.1416,0.1415,0.1413,0.1431,0.1433,0.1435,0.152,0.1436,0.1437,0.1438,0.1569,0.1572,0.1575,0,0,0,0,0,0,0.1243,0.1259,0.1382,0.1321,0.1336,0.1363,0.1401,0.1404,0.1399,0.1425,0.1425,0.1406,0.143,0.1433,0.1466,0.1518,0.1438,0.1439,0.1566,0.157,0.1574,0.1657,0,0,0,0,0,0,0.1238,0.1258,0.1273,0.1323,0.134,0.1409,0.1402,0.1406,0.1411,0.1409,0.1418,0.1419,0.143,0.1464,0.1467,0.1518,0.144,0.1562,0.1568,0.1572,0.1651,0.1664,0.1675,0,0,0,0,0,0.1232,0.1263,0.1274,0.1289,0.1364,0.141,0.1417,0.1428,0.1411,0.1417,0.1437,0.1418,0.15,0.1467,0.147,0.1523,0.156,0.1566,0.1572,0.1646,0.1661,0.1674,0,0,0,0,0,0,0.1197,0.1267,0.1279,0.1332,0.1366,0.141,0.142,0.1421,0.144,0.1435,0.1443,0.1448,0.15,0.1499,0.1463,0.158,0.153,0.1537,0.1586,0.16,0.1611,0.1619,0.1441,0,0,0,0,0,0.1198,0.1237,0.1293,0.1334,0.1351,0.1379,0.1394,0.1405,0.1435,0.1439,0.1454,0.1483,0.1533,0.1551,0.1583,0.1636,0.1658,0.1676,0.1688,0.1698,0.1709,0.1789,0.1809,0.1595,0.1595,0.1595,0,0,0.1199,0.124,0.1264,0.1328,0.1354,0.1408,0.1384,0.1413,0.1462,0.144,0.1497,0.1514,0.1554,0.1628,0.1652,0.163,0.1776,0.1706,0.1714,0.172,0.1798,0.1818,0.1837,0.16,0.1599,0.1598,0,0,0.1229,0.1255,0.1301,0.1335,0.138,0.1409,0.1414,0.1457,0.1474,0.1533,0.1545,0.1598,0.1647,0.171,0.1744,0.1838,0.1831,0.1838,0.191,0.1988,0.2006,0.2022,0.2096,0.2118,0.185,0.185,0.185,0,0.1226,0.1299,0.1317,0.1372,0.1408,0.1413,0.147,0.1504,0.1553,0.1587,0.156,0.1684,0.1704,0.1829,0.1867,0.1867,0.1897,0.185,0.2003,0.2019,0.2034,0.2106,0.2129,0.1855,0.1855,0.1854,0.1854,0,0.1302,0.1352,0.1379,0.1462,0.1498,0.1541,0.1596,0.1631,0.1645,0.1687,0.1779,0.1819,0.1897,0.1918,0.1922,0.205,0.2033,0.2002,0.1963,0.206,0.213,0.2153,0.1862,0.186,0.1859,0.1858,0,0,0.1323,0.1415,0.1427,0.1466,0.1544,0.1582,0.1671,0.1757,0.1814,0.1863,0.1954,0.2048,0.2048,0.2088,0.2101,0.2165,0.2303,0.2127,0.2129,0.2194,0.2475,0.2446,0.2467,0.2287,0.2291,0.2294,0.2488,0,0.1377,0.1477,0.1521,0.1617,0.1667,0.1711,0.1793,0.1867,0.1919,0.2005,0.2067,0.2153,0.2121,0.2159,0.2226,0.228,0.2362,0.2253,0.2376,0.2381,0.2337,0.2492,0.2116,0.2254,0.2509,0.2513,0.2516,0,0.1444,0.1498,0.1596,0.1685,0.1713,0.1778,0.189,0.1966,0.209,0.2132,0.2226,0.2259,0.2392,0.2326,0.2496,0.2421,0.2463,0.2493,0.25,0.2457,0.2393,0.2196,0.2285,0.2553,0.255,0.2547,0.2545,0,0.1435,0.155,0.162,0.1655,0.1766,0.1822,0.1888,0.2005,0.2075,0.2219,0.2284,0.2414,0.2493,0.257,0.2641,0.2577,0.2806,0.2729,0.2752,0.275,0.2448,0.2413,0.2859,0.2859,0.2859,0.2858,0.2858,0,0.1467,0.1523,0.1619,0.1656,0.174,0.1824,0.1926,0.2008,0.2142,0.2242,0.2343,0.2445,0.2552,0.268,0.2715,0.2829,0.2884,0.281,0.2816,0.2469,0.2436,0.269,0.2668,0.2865,0.2864,0.2862,0.2861,0,0.1436,0.1508,0.1583,0.1695,0.1734,0.179,0.1927,0.1997,0.2137,0.2276,0.2333,0.2514,0.2696,0.2806,0.2961,0.2937,0.3036,0.3055,0.2649,0.2605,0.2904,0.2884,0.3109,0.311,0.3111,0.3112,0.3112,0,0.1417,0.1457,0.1577,0.1612,0.1661,0.1758,0.182,0.1972,0.2053,0.231,0.2373,0.2608,0.2733,0.2973,0.2939,0.3031,0.3142,0.2795,0.2613,0.2956,0.294,0.2918,0.2897,0.2248,0.2241,0.2236,0.2231,0,0.1355,0.1407,0.1454,0.1538,0.1605,0.1698,0.1806,0.1874,0.207,0.2201,0.2408,0.2538,0.2713,0.2653,0.2775,0.2753,0.2745,0.2694,0.3178,0.2252,0.2162,0.214,0.2144,0.2184,0.2189,0.2192,0.2195,0.2197,0.1276,0.1298,0.1365,0.1445,0.1522,0.1622,0.1683,0.1807,0.1942,0.2129,0.2302,0.2394,0.2377,0.237,0.2375,0.236,0.251,0.2393,0.2401,0.2417,0.2292,0.2209,0.2217,0.2222,0.2226,0.2229,0.2233,0,0.1166,0.1221,0.1271,0.1365,0.1416,0.152,0.1656,0.1703,0.1827,0.1971,0.212,0.1883,0.1868,0.1961,0.1799,0.1819,0.1697,0.1829,0.1622,0.1666,0.1706,0.1539,0.1269,0.1268,0.1267,0.1266,0,0,0.1106,0.1121,0.1174,0.1232,0.1318,0.1405,0.1485,0.1569,0.165,0.1649,0.1647,0.1775,0.1806,0.1501,0.145,0.1382,0.1526,0.1316,0.2052,0.1843,0.1884,0.1959,0.1745,0,0,0,0,0]},{"header":{"parameterUnit":"m.s-1","parameterCategory":2,"la1":30.2991,"la2":30.254,"lo1":-89.0895,"lo2":-89.0444,"dy":0.0017,"dx":0.0017,"nx":28,"ny":28,"refTime":"2023-06-27T21:00:00:Z","depth":"2","parameterNumber":3,"parameterNumberName":"V-component_of_CURRENTS"},"data":[0,0,0,0,0,0,0,0,0,0,0,0,0,0,0,0,0,0,0,0,0,0,0,0,0,0,0,0,0,0,0,0,0,0,0,0,0,0,0,0,0,0,0,0,0,0,0,0,0,0,0,0,0,0,0,0,0,0,-0.0127,-0.0127,0,-0.016,-0.0161,-0.0161,-0.0205,-0.0206,-0.0207,-0.0207,-0.028,-0.0281,-0.0282,0,0,0,0,0,0,0,0,0,0,0,0,0,-0.014,-0.0139,-0.0127,-0.0127,-0.0128,-0.016,-0.0161,-0.0161,-0.0205,-0.0206,-0.0207,-0.0208,-0.0279,-0.0281,-0.0282,0,0,0,0,0,0,0,0,0,0,0,0,0,-0.0149,-0.0139,-0.0127,-0.0154,-0.0157,-0.016,-0.0161,-0.0161,-0.0205,-0.0206,-0.0207,-0.0208,-0.0279,-0.028,-0.0282,-0.0271,0,0,-0.0288,-0.0289,0,0,0,0,0,0,0,0,-0.0149,-0.0149,-0.0149,-0.0152,-0.0155,-0.018,-0.0192,-0.02,-0.0204,-0.0186,-0.0207,-0.0209,-0.0249,-0.0253,-0.0256,-0.0274,-0.0277,-0.0288,-0.0289,-0.029,-0.029,0,0,0,0,0,0,0,-0.0148,-0.0148,-0.014,-0.015,-0.0153,-0.0178,-0.018,-0.0194,-0.0211,-0.0188,-0.0191,-0.0195,-0.0251,-0.0254,-0.0258,-0.0278,-0.0288,-0.029,-0.0291,-0.0291,-0.0338,-0.0339,0,0,0,0,0,0,-0.0141,-0.0147,-0.0139,-0.0141,-0.0155,-0.0176,-0.0179,-0.0171,-0.021,-0.0217,-0.0194,-0.0197,-0.0251,-0.0256,-0.0261,-0.0291,-0.029,-0.0292,-0.0293,-0.0338,-0.0338,-0.0339,0,0,0,0,0,0,-0.0141,-0.0139,-0.0137,-0.0146,-0.0147,-0.0175,-0.0165,-0.0171,-0.0199,-0.0215,-0.0223,-0.0219,-0.0252,-0.0259,-0.0285,-0.0293,-0.0292,-0.0294,-0.0338,-0.0338,-0.0338,-0.0325,0,0,0,0,0,0,-0.0141,-0.0139,-0.0139,-0.0145,-0.0147,-0.0159,-0.0164,-0.017,-0.0198,-0.0203,-0.0239,-0.0245,-0.0253,-0.0282,-0.0286,-0.0295,-0.0296,-0.0338,-0.0338,-0.0338,-0.0325,-0.0324,-0.0324,0,0,0,0,0,-0.0141,-0.0145,-0.0138,-0.0138,-0.0143,-0.016,-0.0164,-0.0187,-0.0198,-0.0216,-0.023,-0.0245,-0.0287,-0.0283,-0.0289,-0.0298,-0.0338,-0.0338,-0.0338,-0.0325,-0.0324,-0.0324,0,0,0,0,0,0,-0.0156,-0.0149,-0.0143,-0.0145,-0.0157,-0.0168,-0.019,-0.0198,-0.0222,-0.0232,-0.0246,-0.0253,-0.028,-0.029,-0.0285,-0.0312,-0.0316,-0.0317,-0.0304,-0.0303,-0.0303,-0.027,-0.0297,0,0,0,0,0,-0.0154,-0.0156,-0.0153,-0.0159,-0.0165,-0.0177,-0.0191,-0.0203,-0.0219,-0.0233,-0.0252,-0.027,-0.028,-0.0293,-0.0309,-0.0322,-0.035,-0.0333,-0.0332,-0.0332,-0.0309,-0.0368,-0.0371,-0.034,-0.034,-0.034,0,0,-0.0165,-0.016,-0.0164,-0.0163,-0.0175,-0.017,-0.019,-0.0217,-0.0207,-0.0236,-0.0247,-0.0275,-0.0285,-0.0299,-0.0312,-0.0311,-0.036,-0.0332,-0.0332,-0.0308,-0.0369,-0.0372,-0.0375,-0.034,-0.034,-0.034,0,0,-0.0178,-0.0181,-0.018,-0.0183,-0.0195,-0.0195,-0.0205,-0.0221,-0.0229,-0.0236,-0.0253,-0.0282,-0.0301,-0.0307,-0.031,-0.0315,-0.0358,-0.0331,-0.0299,-0.0359,-0.0362,-0.0364,-0.0423,-0.0431,-0.0328,-0.0328,-0.0328,0,-0.019,-0.0167,-0.0188,-0.018,-0.0171,-0.0202,-0.0185,-0.0196,-0.0219,-0.0216,-0.0241,-0.0269,-0.0295,-0.0291,-0.0293,-0.0314,-0.0355,-0.0301,-0.0358,-0.0362,-0.0365,-0.0424,-0.0433,-0.0327,-0.0327,-0.0327,-0.0327,0,-0.0186,-0.0168,-0.0175,-0.0156,-0.0159,-0.016,-0.0159,-0.0171,-0.0184,-0.0191,-0.021,-0.0244,-0.0254,-0.0279,-0.0283,-0.0311,-0.0338,-0.0356,-0.0359,-0.0367,-0.0429,-0.0439,-0.0326,-0.0327,-0.0327,-0.0327,0,0,-0.0191,-0.0169,-0.0166,-0.0135,-0.0136,-0.0131,-0.0121,-0.0107,-0.0093,-0.014,-0.0123,-0.0163,-0.0198,-0.0202,-0.0233,-0.0282,-0.0357,-0.0323,-0.0327,-0.0379,-0.0496,-0.0435,-0.0441,-0.0395,-0.0396,-0.0397,-0.0538,0,-0.0168,-0.0128,-0.0122,-0.0078,-0.0051,-0.0058,-0.0033,-0.0036,-0.0051,-0.0055,-0.0105,-0.0111,-0.0163,-0.017,-0.0231,-0.0315,-0.0379,-0.0317,-0.048,-0.0484,-0.0428,-0.0448,-0.0442,-0.0558,-0.0547,-0.0549,-0.055,0,-0.0142,-0.0111,-0.0058,0.0001,0.0012,0.0033,0.0074,0.0088,0.0067,0.0056,0.0019,-0.0027,-0.0084,-0.0134,-0.0294,-0.0256,-0.0368,-0.0448,-0.0457,-0.0401,-0.044,-0.0545,-0.0577,-0.0567,-0.0566,-0.0564,-0.0563,0,-0.0109,-0.0055,-0.0001,0.0015,0.0061,0.0093,0.0117,0.0117,0.0142,0.0122,0.0125,0.0037,0.0002,-0.0145,-0.0299,-0.031,-0.0485,-0.0527,-0.0582,-0.0581,-0.0602,-0.0598,-0.0651,-0.0651,-0.0651,-0.0651,-0.065,0,-0.007,-0.0025,0.0023,0.0053,0.0128,0.014,0.0202,0.0212,0.0225,0.0251,0.0182,0.0181,-0.0005,-0.0121,-0.0283,-0.0445,-0.0482,-0.0568,-0.0606,-0.0597,-0.0591,-0.061,-0.0603,-0.0656,-0.0655,-0.0654,-0.0653,0,-0.0049,-0.0019,0.0049,0.0116,0.0144,0.0192,0.0264,0.0301,0.0312,0.0344,0.0345,0.0271,0.0138,-0.0046,-0.028,-0.0403,-0.0575,-0.063,-0.0594,-0.0622,-0.0646,-0.0637,-0.0716,-0.0715,-0.0714,-0.0714,-0.0713,0,-0.0031,0.0005,0.009,0.014,0.0175,0.0248,0.03,0.0338,0.0377,0.04,0.0418,0.0328,0.0291,0.0002,-0.0246,-0.0496,-0.0548,-0.0645,-0.0646,-0.0619,-0.065,-0.0642,-0.0635,-0.0702,-0.0702,-0.0701,-0.0701,0,0.0015,0.0039,0.0096,0.0195,0.0264,0.0336,0.0411,0.0458,0.05,0.0545,0.058,0.0566,0.0321,0.0081,-0.0223,-0.0389,-0.0594,-0.0635,-0.0651,-0.0647,-0.0607,-0.0635,-0.0629,-0.0695,-0.0696,-0.0696,-0.0697,-0.0697,0.0063,0.011,0.0195,0.0286,0.0357,0.0443,0.0518,0.059,0.0685,0.0805,0.0738,0.0714,0.0373,0.0005,-0.0251,-0.0514,-0.0527,-0.0651,-0.0654,-0.0658,-0.0591,-0.0546,-0.0614,-0.0614,-0.0614,-0.0614,-0.0614,0,0.0164,0.0219,0.0295,0.0419,0.0501,0.0519,0.062,0.0706,0.0841,0.0911,0.0994,0.0636,0.0396,0.0043,-0.0346,-0.0565,-0.0595,-0.0623,-0.0655,-0.0659,-0.0663,-0.0597,-0.0623,-0.0623,-0.0623,-0.0623,0,0,0.0242,0.0344,0.0379,0.0549,0.062,0.0747,0.0812,0.0923,0.0979,0.1037,0.0989,0.0965,0.0428,0.0125,-0.0199,-0.04,-0.0446,-0.0412,-0.0388,-0.0388,-0.0387,-0.0671,-0.0572,0,0,0,0,0]}],[{"header":{"parameterUnit":"m.s-1","parameterCategory":2,"la1":30.2991,"la2":30.254,"lo1":-89.0895,"lo2":-89.0444,"dy":0.0017,"dx":0.0017,"nx":28,"ny":28,"refTime":"2023-06-27T21:00:00:Z","depth":"4","parameterNumber":2,"parameterNumberName":"U-component_of_CURRENTS"},"data":[0,0,0,0,0,0,0,0,0,0,0,0,0,0,0,0,0,0,0,0,0,0,0,0,0,0,0,0,0,0,0,0,0,0,0,0,0,0,0,0,0,0,0,0,0,0,0,0,0,0,0,0,0,0,0,0,0,0,0.0583,0.0583,0,0.0634,0.0635,0.0636,0.0727,0.0728,0.0729,0.073,0.0814,0.0815,0.0816,0,0,0,0,0,0,0,0,0,0,0,0,0,0.0549,0.055,0.0583,0.0583,0.0583,0.0634,0.0635,0.0637,0.0726,0.0728,0.0729,0.0731,0.0813,0.0815,0.0816,0,0,0,0,0,0,0,0,0,0,0,0,0,0.0583,0.055,0.0583,0.063,0.0634,0.0634,0.0635,0.0637,0.0726,0.0728,0.073,0.0731,0.0813,0.0814,0.0816,0.0789,0,0,0.0821,0.0822,0,0,0,0,0,0,0,0,0.0581,0.0585,0.0623,0.0627,0.0632,0.0671,0.0654,0.0688,0.0726,0.0697,0.073,0.0732,0.0764,0.077,0.0783,0.0793,0.0797,0.0821,0.0822,0.0823,0.0823,0,0,0,0,0,0,0,0.0579,0.0583,0.0609,0.0623,0.0628,0.0644,0.0652,0.0661,0.0724,0.07,0.0705,0.0702,0.0768,0.0781,0.0785,0.0798,0.0821,0.0823,0.0824,0.0824,0.0946,0.0948,0,0,0,0,0,0,0.0561,0.0581,0.0607,0.0609,0.0605,0.0643,0.0652,0.0661,0.0724,0.0733,0.07,0.0705,0.0777,0.0783,0.0788,0.0874,0.0823,0.0824,0.0825,0.0943,0.0946,0.0949,0,0,0,0,0,0,0.056,0.0563,0.0605,0.0592,0.0597,0.0641,0.0651,0.0661,0.0719,0.0723,0.0735,0.0752,0.0779,0.0786,0.0829,0.0874,0.0825,0.0827,0.0941,0.0944,0.0947,0.0973,0,0,0,0,0,0,0.0559,0.0563,0.0585,0.0591,0.0597,0.0633,0.0649,0.066,0.0708,0.0718,0.077,0.0777,0.0781,0.0827,0.0831,0.0875,0.0828,0.0938,0.0942,0.0946,0.0969,0.0977,0.0983,0,0,0,0,0,0.0558,0.0574,0.0586,0.059,0.062,0.0633,0.064,0.0679,0.071,0.074,0.0772,0.0778,0.0858,0.0829,0.0833,0.0879,0.0936,0.0941,0.0946,0.0966,0.0975,0.0983,0,0,0,0,0,0,0.0567,0.0584,0.0598,0.0619,0.0637,0.0647,0.0675,0.0701,0.0751,0.0774,0.0787,0.0796,0.0855,0.0864,0.0832,0.0932,0.0906,0.0912,0.092,0.0929,0.0936,0.0922,0.0829,0,0,0,0,0,0.0576,0.0599,0.0609,0.0628,0.0641,0.0667,0.0686,0.0714,0.0742,0.077,0.0799,0.0839,0.0871,0.0898,0.0922,0.0963,0.0944,0.1005,0.1012,0.1018,0.1014,0.1002,0.1006,0.0965,0.0965,0.0965,0,0,0.0582,0.0593,0.0608,0.0632,0.0652,0.067,0.0687,0.0727,0.0765,0.0767,0.084,0.0859,0.0887,0.0937,0.0967,0.0956,0.1025,0.1024,0.1029,0.1021,0.1007,0.1011,0.1013,0.0969,0.0968,0.0967,0,0,0.0585,0.062,0.0637,0.0656,0.0688,0.0702,0.0722,0.0758,0.0811,0.0869,0.0879,0.0913,0.0984,0.0988,0.1005,0.1065,0.1057,0.1106,0.1133,0.1122,0.1124,0.1125,0.1116,0.1117,0.1115,0.1115,0.1115,0,0.0589,0.0618,0.0643,0.0659,0.0682,0.0719,0.0745,0.079,0.0841,0.088,0.091,0.0984,0.1003,0.1033,0.1066,0.1077,0.1076,0.1092,0.1126,0.1127,0.1128,0.1119,0.1119,0.1117,0.1117,0.1116,0.1116,0,0.0594,0.0633,0.0645,0.068,0.0708,0.0742,0.0788,0.084,0.0909,0.095,0.1026,0.104,0.1082,0.1105,0.1111,0.1138,0.1138,0.1126,0.1092,0.1133,0.1122,0.1121,0.1119,0.1119,0.1118,0.1118,0,0,0.0563,0.0636,0.0644,0.0678,0.0734,0.0753,0.082,0.0886,0.0944,0.1011,0.107,0.1123,0.1139,0.1157,0.1159,0.1155,0.1165,0.116,0.1158,0.113,0.1154,0.1115,0.111,0.1165,0.1165,0.1165,0.1146,0,0.0565,0.0608,0.0647,0.0702,0.0735,0.0793,0.0854,0.0921,0.0999,0.1063,0.1098,0.1159,0.1161,0.1189,0.1184,0.1173,0.1166,0.1172,0.1138,0.1137,0.1078,0.1108,0.1165,0.1145,0.1145,0.1145,0.1145,0,0.0557,0.0595,0.0656,0.0741,0.0763,0.0811,0.0912,0.097,0.106,0.1123,0.1168,0.12,0.1215,0.121,0.1194,0.1208,0.1189,0.1169,0.1168,0.1116,0.1096,0.1098,0.1143,0.1143,0.1143,0.1144,0.1144,0,0.0525,0.06,0.066,0.0687,0.0783,0.0846,0.0907,0.1006,0.1066,0.1158,0.1199,0.1229,0.1254,0.123,0.1201,0.1217,0.1162,0.1172,0.1107,0.1104,0.113,0.1128,0.1143,0.1143,0.1143,0.1143,0.1143,0,0.0511,0.0554,0.0667,0.0699,0.0785,0.086,0.0959,0.1025,0.1114,0.116,0.1231,0.1226,0.1266,0.1239,0.1205,0.1148,0.1164,0.111,0.1095,0.1146,0.1147,0.1129,0.1128,0.1142,0.1142,0.1143,0.1143,0,0.0466,0.0536,0.0607,0.0733,0.0779,0.0847,0.0976,0.1026,0.1132,0.1179,0.1208,0.1248,0.1227,0.1224,0.118,0.1156,0.1095,0.1059,0.111,0.1098,0.1052,0.1053,0.1023,0.1021,0.102,0.1018,0.1018,0,0.0447,0.0485,0.0619,0.0671,0.0745,0.0852,0.0915,0.1028,0.1057,0.1147,0.1132,0.1172,0.1181,0.1077,0.1085,0.1042,0.1022,0.1016,0.1049,0.105,0.1039,0.1042,0.1044,0.1015,0.1015,0.1015,0.1014,0,0.0414,0.0475,0.0533,0.0636,0.0722,0.0784,0.0875,0.0884,0.0985,0.1081,0.1051,0.1064,0.1041,0.1017,0.1004,0.0953,0.1044,0.1003,0.1006,0.1037,0.1041,0.1032,0.1036,0.101,0.101,0.1011,0.1011,0,0.0388,0.0416,0.0502,0.0581,0.0676,0.0705,0.0753,0.0784,0.0828,0.0937,0.0898,0.0933,0.0988,0.0963,0.0909,0.0912,0.0926,0.0929,0.0937,0.0943,0.0931,0.0925,0.0841,0,0,0,0,0,0.036,0.0376,0.0439,0.0511,0.0596,0.0649,0.0716,0.0751,0.0834,0.0798,0.0865,0.0834,0.0848,0.0835,0.0824,0.0884,0.0921,0.0873,0.0925,0.0984,0.0989,0.0986,0,0,0,0,0,0,0.0337,0.0387,0.0407,0.0444,0.0482,0.0545,0.0588,0.0633,0.0608,0.0706,0.0683,0.0812,0.0787,0.0837,0.081,0.0822,0.085,0.0916,0.0915,0.0981,0.0985,0.099,0.0989,0,0,0,0,0]},{"header":{"parameterUnit":"m.s-1","parameterCategory":2,"la1":30.2991,"la2":30.254,"lo1":-89.0895,"lo2":-89.0444,"dy":0.0017,"dx":0.0017,"nx":28,"ny":28,"refTime":"2023-06-27T21:00:00:Z","depth":"4","parameterNumber":3,"parameterNumberName":"V-component_of_CURRENTS"},"data":[0,0,0,0,0,0,0,0,0,0,0,0,0,0,0,0,0,0,0,0,0,0,0,0,0,0,0,0,0,0,0,0,0,0,0,0,0,0,0,0,0,0,0,0,0,0,0,0,0,0,0,0,0,0,0,0,0,0,-0.0054,-0.0054,0,-0.0103,-0.0104,-0.0105,-0.0131,-0.0131,-0.013,-0.013,-0.0231,-0.0234,-0.0237,0,0,0,0,0,0,0,0,0,0,0,0,0,-0.0026,-0.0026,-0.0054,-0.0054,-0.0054,-0.0103,-0.0104,-0.0105,-0.0131,-0.0131,-0.013,-0.013,-0.023,-0.0234,-0.0237,0,0,0,0,0,0,0,0,0,0,0,0,0,-0.0057,-0.0026,-0.0054,-0.007,-0.0071,-0.0103,-0.0104,-0.0106,-0.0131,-0.013,-0.013,-0.0129,-0.0229,-0.0233,-0.0238,-0.0277,0,0,-0.0252,-0.0254,0,0,0,0,0,0,0,0,-0.0055,-0.0058,-0.0067,-0.0069,-0.0071,-0.0106,-0.0131,-0.0164,-0.0131,-0.0113,-0.013,-0.0129,-0.0192,-0.0199,-0.0215,-0.0281,-0.0286,-0.0252,-0.0255,-0.0257,-0.0258,0,0,0,0,0,0,0,-0.0053,-0.0056,-0.0078,-0.0067,-0.0069,-0.0089,-0.0093,-0.0138,-0.0159,-0.0115,-0.0115,-0.0114,-0.0194,-0.0211,-0.0218,-0.0287,-0.0252,-0.0256,-0.0259,-0.0261,-0.0471,-0.0474,0,0,0,0,0,0,-0.0036,-0.0054,-0.0076,-0.0079,-0.0056,-0.009,-0.0094,-0.0099,-0.0158,-0.0164,-0.0115,-0.0115,-0.0203,-0.0213,-0.0222,-0.0315,-0.0257,-0.0261,-0.0264,-0.0468,-0.0472,-0.0475,0,0,0,0,0,0,-0.0036,-0.0038,-0.0074,-0.0064,-0.0069,-0.009,-0.0096,-0.01,-0.0131,-0.0156,-0.0165,-0.0141,-0.0203,-0.0215,-0.0279,-0.0317,-0.0263,-0.0267,-0.0465,-0.0469,-0.0473,-0.0474,0,0,0,0,0,0,-0.0035,-0.0038,-0.0049,-0.0063,-0.0069,-0.0101,-0.0096,-0.0101,-0.0127,-0.0129,-0.0181,-0.0189,-0.0204,-0.0272,-0.0283,-0.0323,-0.0271,-0.0461,-0.0467,-0.0472,-0.047,-0.0478,-0.0484,0,0,0,0,0,-0.0034,-0.005,-0.005,-0.0052,-0.008,-0.0102,-0.0108,-0.0123,-0.0129,-0.0149,-0.0187,-0.0188,-0.0315,-0.0278,-0.029,-0.0332,-0.0459,-0.0465,-0.0471,-0.0467,-0.0476,-0.0484,0,0,0,0,0,0,-0.0057,-0.0054,-0.0054,-0.0072,-0.0087,-0.0105,-0.0124,-0.0135,-0.0182,-0.0193,-0.0216,-0.0228,-0.0303,-0.0326,-0.0284,-0.0414,-0.0392,-0.0401,-0.0384,-0.0393,-0.04,-0.0367,-0.0274,0,0,0,0,0,-0.0061,-0.0069,-0.0073,-0.0093,-0.0097,-0.0115,-0.013,-0.0144,-0.0176,-0.0196,-0.0227,-0.028,-0.0341,-0.0369,-0.0422,-0.0485,-0.0473,-0.0528,-0.0535,-0.054,-0.0527,-0.0543,-0.0547,-0.0496,-0.0496,-0.0496,0,0,-0.0078,-0.0077,-0.0084,-0.0097,-0.011,-0.0117,-0.0125,-0.0156,-0.0177,-0.0203,-0.0253,-0.0306,-0.0366,-0.0438,-0.0475,-0.0458,-0.0551,-0.0548,-0.0552,-0.0535,-0.0549,-0.0554,-0.0557,-0.05,-0.05,-0.0499,0,0,-0.0095,-0.0111,-0.0111,-0.012,-0.0135,-0.0144,-0.0153,-0.018,-0.021,-0.0272,-0.0299,-0.0364,-0.0455,-0.0489,-0.0524,-0.0604,-0.059,-0.0644,-0.0645,-0.0661,-0.0663,-0.0665,-0.065,-0.0651,-0.0642,-0.0642,-0.0642,0,-0.011,-0.011,-0.012,-0.0118,-0.0127,-0.0152,-0.0159,-0.0193,-0.0243,-0.0276,-0.0295,-0.043,-0.0475,-0.055,-0.0582,-0.0615,-0.0612,-0.0599,-0.0663,-0.0665,-0.0667,-0.0651,-0.0652,-0.0643,-0.0643,-0.0643,-0.0643,0,-0.0111,-0.0119,-0.0126,-0.0121,-0.0138,-0.0158,-0.0185,-0.022,-0.0267,-0.0306,-0.0405,-0.0471,-0.0542,-0.0586,-0.0611,-0.0666,-0.0654,-0.0666,-0.0624,-0.0671,-0.0653,-0.0653,-0.0644,-0.0644,-0.0644,-0.0644,0,0,-0.0117,-0.012,-0.0124,-0.012,-0.0144,-0.0154,-0.0196,-0.024,-0.0273,-0.0355,-0.0405,-0.0523,-0.056,-0.0602,-0.0645,-0.0665,-0.0682,-0.0673,-0.0674,-0.0625,-0.0696,-0.0661,-0.0658,-0.0704,-0.0704,-0.0705,-0.0672,0,-0.0111,-0.0099,-0.0113,-0.0121,-0.0116,-0.0153,-0.0189,-0.0242,-0.0304,-0.036,-0.0451,-0.0524,-0.0567,-0.0607,-0.0639,-0.0679,-0.0686,-0.0688,-0.0686,-0.0685,-0.0621,-0.0658,-0.0706,-0.0672,-0.0672,-0.0672,-0.0672,0,-0.0097,-0.009,-0.0091,-0.011,-0.0115,-0.0141,-0.0192,-0.0229,-0.0318,-0.0368,-0.0447,-0.0507,-0.0572,-0.0597,-0.0658,-0.0659,-0.0674,-0.0693,-0.0693,-0.0655,-0.0651,-0.0623,-0.0673,-0.0673,-0.0673,-0.0673,-0.0673,0,-0.0069,-0.0076,-0.0077,-0.0082,-0.0109,-0.0144,-0.0178,-0.0253,-0.0276,-0.037,-0.0387,-0.0489,-0.0524,-0.0577,-0.062,-0.0644,-0.0657,-0.0694,-0.0667,-0.0663,-0.0697,-0.0696,-0.0712,-0.0712,-0.0713,-0.0713,-0.0713,0,-0.0046,-0.0047,-0.0074,-0.0071,-0.0094,-0.0137,-0.0177,-0.0222,-0.028,-0.0288,-0.0391,-0.0397,-0.052,-0.0544,-0.0597,-0.062,-0.0635,-0.0659,-0.0657,-0.0702,-0.0701,-0.0696,-0.0695,-0.0711,-0.0712,-0.0712,-0.0712,0,-0.0016,-0.0028,-0.0025,-0.0062,-0.0079,-0.0106,-0.0148,-0.0163,-0.0226,-0.0229,-0.0247,-0.0325,-0.0374,-0.0457,-0.0527,-0.0568,-0.0605,-0.0597,-0.0603,-0.0602,-0.0608,-0.0607,-0.0592,-0.059,-0.0589,-0.0588,-0.0587,0,0.0002,0.0006,-0.001,-0.0013,-0.0041,-0.0076,-0.0088,-0.014,-0.013,-0.0162,-0.0141,-0.0205,-0.0257,-0.0322,-0.0432,-0.0521,-0.0536,-0.0543,-0.0623,-0.0598,-0.0598,-0.0599,-0.0601,-0.0585,-0.0585,-0.0585,-0.0584,0,0.0026,0.0013,0.0016,0.0018,0.0002,0.0014,-0.0006,0.0014,-0.0016,-0.004,-0.0042,-0.0118,-0.0168,-0.0289,-0.0348,-0.0415,-0.0549,-0.0532,-0.0537,-0.0612,-0.059,-0.0592,-0.0594,-0.058,-0.0581,-0.0581,-0.0581,0,0.0031,0.0035,0.0033,0.0033,0.0043,0.0068,0.0063,0.0076,0.0077,0.0051,0.0065,-0.0037,-0.0102,-0.0227,-0.0275,-0.0353,-0.0402,-0.0434,-0.0445,-0.0451,-0.0439,-0.0392,-0.0312,0,0,0,0,0,0.0025,0.0028,0.0045,0.0049,0.0077,0.0076,0.011,0.0114,0.0116,0.0135,0.0093,0.0047,-0.0085,-0.0152,-0.0224,-0.0279,-0.0423,-0.0366,-0.0467,-0.0558,-0.0562,-0.0572,0,0,0,0,0,0,0.0014,0.0025,0.0043,0.0068,0.0077,0.0106,0.0126,0.0136,0.0146,0.0135,0.0069,0.0032,-0.0097,-0.0048,-0.0229,-0.0256,-0.0326,-0.0432,-0.0433,-0.0555,-0.0559,-0.0563,-0.0574,0,0,0,0,0]}]]